User: anonymous   Login
Location: Mountain Grove
(34.0887°N, 86.6172°W)
Time: 23:11:29
(UTC+00:00)
Language:

Resurs 01 Rocket - Orbit

View from above orbital plane
View from above orbital plane
View from above satellite
View from above satellite

Ground track
Ground track

The orbit data is extracted from the following two-line orbital elements,

1 23343U 94074B   20272.41908609 +.00000047 +00000-0 +13952-4 0  9994
2 23343 097.9883 324.4494 0007076 167.9993 202.7624 14.76837566393826
Epoch (UTC): 28 September 2020 10:03:29
Eccentricity: 0.0007076
inclination: 97.9883°
perigee height: 634 km
apogee height: 644 km
right ascension of ascending node: 324.4494°
argument of perigee: 167.9993°
revolutions per day: 14.76837566
mean anomaly at epoch: 202.7624°
orbit number at epoch: 39382

The dashed part of the orbit path shows where the satellite is in the earth's shadow,  

DLR